When you browse on this site, cookies collect data to enhance your experience and personalize the content and advertising you see.
Visit our Privacy Policy to learn more. By continuing to use the site, you agree to this use of cookies and data.
  • In Sweden
  • List of Countries
  • For 7 days
  • Water Temperature
  • Satellite Maps
  • Weather Map
  • Weather Widgets
  • user-avatar
    Login

    Hourly Weather Vozvyshenka

    Today, 18 June, Tuesday

    Time Temperature Precipitation Wind Pressure Humidity
    00:00 +9°C° 0 mm 2 mps 741 mmHg 88%
    01:00 +9°C° 0 mm 3 mps 741 mmHg 90%
    02:00 +8°C° 0 mm 3 mps 741 mmHg 91%
    03:00 +8°C° 0 mm 3 mps 741 mmHg 90%
    04:00 +7°C° 0 mm 4 mps 741 mmHg 89%
    05:00 +6°C° 0 mm 4 mps 741 mmHg 89%
    06:00 +8°C° 0 mm 4 mps 741 mmHg 83%
    07:00 +10°C° 0 mm 4 mps 741 mmHg 77%
    08:00 +12°C° 0 mm 5 mps 742 mmHg 71%
    09:00 +13°C° 0 mm 5 mps 742 mmHg 64%
    10:00 +14°C° 0 mm 5 mps 742 mmHg 58%
    11:00 +15°C° 0 mm 5 mps 742 mmHg 52%
    12:00 +17°C° 0 mm 4 mps 742 mmHg 51%
    13:00 +17°C° 0 mm 4 mps 742 mmHg 51%
    14:00 +18°C° 0 mm 4 mps 742 mmHg 51%
    15:00 +18°C° 0 mm 4 mps 742 mmHg 51%
    16:00 +18°C° 0 mm 4 mps 742 mmHg 52%
    17:00 +18°C° 0 mm 3 mps 742 mmHg 53%
    18:00 +17°C° 0.1 mm 3 mps 742 mmHg 62%
    19:00 +16°C° 0.1 mm 3 mps 742 mmHg 70%
    20:00 +13°C° 0.1 mm 3 mps 742 mmHg 79%
    21:00 +14°C° 0 mm 2 mps 742 mmHg 81%
    22:00 +13°C° 0 mm 2 mps 742 mmHg 84%
    23:00 +12°C° 0 mm 2 mps 742 mmHg 86%

    Tomorrow, 19 June, Wednesday

    Time Temperature Precipitation Wind Pressure Humidity
    00:00 +10°C° 0 mm 2 mps 742 mmHg 87%
    01:00 +10°C° 0 mm 2 mps 742 mmHg 87%
    02:00 +10°C° 0 mm 2 mps 742 mmHg 88%
    03:00 +10°C° 0 mm 2 mps 743 mmHg 89%
    04:00 +10°C° 0 mm 2 mps 743 mmHg 90%
    05:00 +10°C° 0 mm 3 mps 743 mmHg 90%
    06:00 +11°C° 0 mm 3 mps 744 mmHg 87%
    07:00 +12°C° 0 mm 4 mps 744 mmHg 83%
    08:00 +13°C° 0 mm 4 mps 745 mmHg 80%
    09:00 +14°C° 0 mm 4 mps 745 mmHg 72%
    10:00 +15°C° 0 mm 5 mps 745 mmHg 65%
    11:00 +16°C° 0 mm 5 mps 745 mmHg 58%
    12:00 +17°C° 0 mm 5 mps 746 mmHg 55%
    13:00 +17°C° 0 mm 5 mps 746 mmHg 53%
    14:00 +19°C° 0 mm 5 mps 746 mmHg 50%
    15:00 +19°C° 0 mm 4 mps 746 mmHg 51%
    16:00 +19°C° 0 mm 4 mps 746 mmHg 51%
    17:00 +19°C° 0 mm 4 mps 747 mmHg 51%
    18:00 +18°C° 0 mm 3 mps 747 mmHg 58%
    19:00 +17°C° 0 mm 3 mps 747 mmHg 64%
    20:00 +16°C° 0 mm 3 mps 747 mmHg 71%
    21:00 +14°C° 0 mm 3 mps 748 mmHg 74%
    22:00 +13°C° 0 mm 3 mps 748 mmHg 76%
    23:00 +13°C° 0 mm 3 mps 748 mmHg 79%

    Day after tomorrow, 20 June, Thursday

    Time Temperature Precipitation Wind Pressure Humidity
    00:00 +12°C° 0 mm 3 mps 748 mmHg 79%
    01:00 +12°C° 0 mm 3 mps 748 mmHg 80%
    02:00 +12°C° 0 mm 3 mps 748 mmHg 80%
    03:00 +12°C° 0 mm 3 mps 749 mmHg 81%
    04:00 +12°C° 0 mm 3 mps 749 mmHg 81%
    05:00 +12°C° 0 mm 3 mps 749 mmHg 81%
    06:00 +13°C° 0 mm 3 mps 749 mmHg 81%
    07:00 +14°C° 0 mm 3 mps 749 mmHg 80%
    08:00 +16°C° 0 mm 3 mps 750 mmHg 79%
    09:00 +18°C° 0.2 mm 3 mps 750 mmHg 72%
    10:00 +19°C° 0.2 mm 3 mps 750 mmHg 64%
    11:00 +21°C° 0.2 mm 4 mps 750 mmHg 56%
    12:00 +22°C° 0.2 mm 4 mps 750 mmHg 54%
    13:00 +22°C° 0.2 mm 5 mps 750 mmHg 51%
    14:00 +23°C° 0.2 mm 5 mps 749 mmHg 49%
    15:00 +23°C° 0 mm 5 mps 749 mmHg 50%
    16:00 +22°C° 0 mm 5 mps 749 mmHg 51%
    17:00 +22°C° 0 mm 5 mps 749 mmHg 52%
    18:00 +21°C° 0.1 mm 4 mps 749 mmHg 59%
    19:00 +20°C° 0.1 mm 3 mps 749 mmHg 65%
    20:00 +19°C° 0.1 mm 2 mps 749 mmHg 71%
    21:00 +18°C° 0 mm 2 mps 749 mmHg 71%
    22:00 +18°C° 0 mm 3 mps 749 mmHg 72%
    23:00 +17°C° 0 mm 3 mps 749 mmHg 72%

    21 June, Friday

    Time Temperature Precipitation Wind Pressure Humidity
    00:00 +17°C° 0 mm 4 mps 749 mmHg 73%
    01:00 +15°C° 0 mm 4 mps 748 mmHg 73%
    02:00 +15°C° 0 mm 5 mps 748 mmHg 74%
    03:00 +15°C° 0 mm 5 mps 748 mmHg 72%
    04:00 +15°C° 0 mm 5 mps 748 mmHg 71%
    05:00 +15°C° 0 mm 5 mps 747 mmHg 70%
    06:00 +16°C° 0 mm 6 mps 747 mmHg 66%
    07:00 +17°C° 0 mm 6 mps 747 mmHg 62%
    08:00 +20°C° 0 mm 7 mps 747 mmHg 59%
    09:00 +20°C° 0.1 mm 6 mps 747 mmHg 59%
    10:00 +21°C° 0.1 mm 6 mps 747 mmHg 59%
    11:00 +22°C° 0.1 mm 6 mps 746 mmHg 59%
    12:00 +23°C° 0.5 mm 6 mps 746 mmHg 58%
    13:00 +24°C° 0.5 mm 7 mps 746 mmHg 57%
    14:00 +26°C° 0.5 mm 7 mps 745 mmHg 57%
    15:00 +24°C° 1 mm 7 mps 745 mmHg 59%
    16:00 +24°C° 1 mm 7 mps 745 mmHg 61%
    17:00 +23°C° 1 mm 7 mps 745 mmHg 63%
    18:00 +22°C° 0.3 mm 6 mps 745 mmHg 68%
    19:00 +20°C° 0.3 mm 5 mps 745 mmHg 73%
    20:00 +19°C° 0.3 mm 5 mps 745 mmHg 78%
    21:00 +17°C° 0 mm 5 mps 745 mmHg 80%
    22:00 +17°C° 0 mm 4 mps 746 mmHg 82%
    23:00 +15°C° 0 mm 4 mps 746 mmHg 84%

    22 June, Saturday

    Time Temperature Precipitation Wind Pressure Humidity
    00:00 +14°C° 0 mm 4 mps 746 mmHg 87%
    01:00 +13°C° 0 mm 5 mps 747 mmHg 89%
    02:00 +13°C° 0 mm 5 mps 747 mmHg 92%
    03:00 +12°C° 0 mm 5 mps 747 mmHg 91%
    04:00 +12°C° 0 mm 5 mps 748 mmHg 90%
    05:00 +12°C° 0 mm 5 mps 748 mmHg 88%
    06:00 +11°C° 0 mm 6 mps 749 mmHg 80%
    07:00 +13°C° 0 mm 6 mps 749 mmHg 71%
    08:00 +14°C° 0 mm 7 mps 750 mmHg 62%
    09:00 +15°C° 0 mm 8 mps 750 mmHg 59%
    10:00 +16°C° 0 mm 8 mps 750 mmHg 55%
    11:00 +17°C° 0 mm 8 mps 750 mmHg 52%
    12:00 +17°C° 0 mm 8 mps 751 mmHg 51%
    13:00 +17°C° 0 mm 7 mps 751 mmHg 51%
    14:00 +18°C° 0 mm 7 mps 751 mmHg 50%
    15:00 +19°C° 0 mm 6 mps 751 mmHg 52%
    16:00 +19°C° 0 mm 5 mps 751 mmHg 54%
    17:00 +18°C° 0 mm 4 mps 751 mmHg 56%
    18:00 +18°C° 0 mm 3 mps 751 mmHg 62%
    19:00 +17°C° 0 mm 3 mps 751 mmHg 67%
    20:00 +16°C° 0 mm 2 mps 751 mmHg 73%
    21:00 +15°C° 0 mm 2 mps 752 mmHg 75%
    22:00 +14°C° 0 mm 2 mps 752 mmHg 78%
    23:00 +13°C° 0 mm 2 mps 752 mmHg 81%

    23 June, Sunday

    Time Temperature Precipitation Wind Pressure Humidity
    00:00 +12°C° 0 mm 2 mps 752 mmHg 80%
    01:00 +12°C° 0 mm 2 mps 752 mmHg 79%
    02:00 +12°C° 0 mm 2 mps 752 mmHg 78%
    03:00 +12°C° 0 mm 2 mps 752 mmHg 77%
    04:00 +12°C° 0 mm 2 mps 752 mmHg 76%
    05:00 +12°C° 0 mm 2 mps 752 mmHg 75%
    06:00 +12°C° 0 mm 3 mps 752 mmHg 75%
    07:00 +12°C° 0 mm 3 mps 752 mmHg 75%
    08:00 +13°C° 0 mm 3 mps 753 mmHg 75%
    09:00 +13°C° 0 mm 3 mps 752 mmHg 78%
    10:00 +13°C° 0 mm 3 mps 752 mmHg 82%
    11:00 +13°C° 0 mm 4 mps 752 mmHg 85%
    12:00 +13°C° 0 mm 4 mps 752 mmHg 85%
    13:00 +13°C° 0 mm 4 mps 752 mmHg 85%
    14:00 +13°C° 0 mm 4 mps 752 mmHg 85%
    15:00 +16°C° 0 mm 3 mps 751 mmHg 81%
    16:00 +17°C° 0 mm 3 mps 751 mmHg 76%
    17:00 +18°C° 0 mm 3 mps 751 mmHg 72%
    18:00 +18°C° 0 mm 2 mps 751 mmHg 75%
    19:00 +17°C° 0 mm 2 mps 751 mmHg 78%
    20:00 +17°C° 0 mm 2 mps 751 mmHg 81%
    21:00 +16°C° 0 mm 2 mps 750 mmHg 83%
    22:00 +15°C° 0 mm 2 mps 750 mmHg 85%
    23:00 +14°C° 0 mm 2 mps 750 mmHg 88%
    Show more